#timestamp,LO_Frequency,Hit,StdDev 
1503964815.7,286046996.5,N,2.7
1503964835.5,286046998.0,N,2.8
1503964855.4,286046997.6,N,2.8
1503964875.2,286046995.6,N,3.0
1503964895.1,286046995.5,N,2.2
1503964896.0,286046995.5,N,2.1
1503964915.8,286046995.7,N,2.2
1503964935.6,286046995.0,N,2.2
1503964955.5,286046995.7,N,2.2
1503964975.3,286046995.1,N,2.2
1503964995.2,286046993.3,Y,0.0
1503965015.9,286046995.3,P,1.6
1503965035.7,286046995.4,N,1.5
1503965055.6,286046996.3,N,1.3
1503965075.4,286046995.2,Y,0.0
1503965095.3,286046998.8,P,1.2
1503965115.1,286046998.7,N,1.1
1503965116.0,286046998.7,N,1.0
1503965135.8,286046999.1,N,1.0
1503965155.7,286046998.8,N,0.9
1503965175.5,286047011.9,Y,0.0
1503965195.4,286047002.2,P,1.9
1503965215.2,286046999.9,N,1.6
1503965235.0,286047000.6,N,1.4
1503965235.9,286047000.6,N,1.2
1503965255.8,286047000.2,N,1.1
1503965275.6,286046999.8,N,1.1
1503965295.4,286046999.7,N,1.0
1503965315.3,286047002.8,N,1.3
1503965335.1,286047002.0,N,1.3
1503965355.9,286047002.6,N,1.3
1503965375.7,286047002.5,N,1.4
1503965395.5,286047002.7,N,1.4
1503965415.4,286047000.5,N,1.4
1503965435.2,286047000.3,N,1.3
1503965455.1,286047000.3,N,1.3
1503965456.0,286047000.3,N,1.3
1503965475.8,286047000.6,N,1.2
1503965495.6,286047000.9,N,1.2
1503965515.5,286046998.6,N,1.3
1503965535.3,286047001.1,N,1.2
1503965555.2,286046998.2,N,1.3
1503965575.9,286046999.2,N,1.3
1503965595.7,286046998.4,N,1.4
1503965615.6,286046998.1,N,1.4
1503965635.4,286046999.4,N,1.4
1503965655.2,286046998.8,N,1.4
1503965675.1,286046998.9,N,1.4
1503965676.0,286046998.9,N,1.4
1503965695.8,286046998.1,N,1.4
1503965715.7,286046998.3,N,1.4
1503965735.5,286046998.6,N,1.4
1503965755.3,286046998.7,N,1.4
1503965775.2,286046999.4,N,1.4
1503965795.0,286046998.7,N,1.5
1503965795.9,286046998.7,N,1.5
1503965815.8,286046998.8,N,1.5
1503965835.6,286046998.4,N,1.5
1503965855.4,286046996.5,N,1.5
1503965875.3,286046996.6,N,1.5
1503965895.1,286046996.5,N,1.5
1503965915.9,286046996.7,N,1.4
1503965935.7,286046999.3,N,1.2
1503965955.5,286046999.6,N,1.2
1503965975.4,286046999.5,N,1.2
1503965995.2,286046998.9,N,1.1
1503966015.1,286046996.6,N,1.2
1503966016.0,286046996.6,N,1.2
1503966035.8,286046998.3,N,1.1
1503966055.7,286047001.1,N,1.2
1503966075.5,286046998.6,N,1.1
1503966095.3,286046998.5,N,1.1
1503966115.2,286046999.3,N,1.1
1503966135.0,286046999.6,N,1.1
1503966135.9,286046999.6,N,1.1
1503966155.7,286046998.3,N,1.1
1503966175.6,286046999.1,N,1.1
1503966195.4,286046997.8,N,1.1
1503966215.3,286046997.1,N,1.1
1503966235.1,286046996.7,N,1.2
1503966255.8,286046998.8,N,1.2
1503966275.7,286046999.0,N,1.2
1503966295.5,286046997.2,N,1.2
1503966315.4,286046996.8,N,1.2
1503966335.3,286046996.8,N,1.2
1503966355.1,286046996.7,N,1.3
1503966375.8,286046996.7,N,1.3
1503966395.7,286046997.1,N,1.3
1503966415.5,286046996.6,N,1.3
1503966435.4,286046999.2,N,1.3
1503966455.2,286046999.1,N,1.3
1503966475.0,286046998.7,N,1.2
1503966475.9,286046998.7,N,1.2
1503966495.8,286046999.6,N,1.2
1503966515.6,286046996.6,N,1.2
1503966535.5,286046997.0,N,1.2
1503966555.3,286046996.8,N,1.2
1503966575.1,286046996.7,N,1.2
1503966595.9,286046994.9,Y,0.0
1503966615.7,286046998.4,P,0.2
1503966635.6,286046998.6,P,0.2
1503966655.4,286046998.3,P,0.2
1503966675.2,286046998.4,Y,0.0
1503966695.1,286047000.0,P,0.8
1503966696.0,286047000.0,N,0.8
1503966715.8,286047000.5,N,0.8
1503966735.7,286047000.4,N,0.8
1503966755.5,286047000.6,N,0.8
1503966775.3,286047000.5,N,0.7
1503966795.2,286047000.3,N,0.7
1503966815.0,286046999.8,N,0.7
1503966815.9,286046999.8,N,0.6
1503966835.7,286047000.2,N,0.6
1503966855.6,286047001.5,N,0.7
1503966875.4,286047002.5,Y,0.0
1503966895.3,286046999.7,P,0.2
1503966915.1,286047002.2,P,1.1
1503966935.8,286047002.6,N,1.3
1503966955.7,286047002.6,N,1.3
1503966975.5,286047002.0,N,1.2
1503966995.4,286047001.6,N,1.1
1503967015.2,286047001.6,N,1.0
1503967035.0,286047001.7,N,1.0
1503967035.9,286047001.7,N,0.9
1503967055.8,286047001.5,N,0.9
1503967075.6,286047002.3,N,0.9
1503967095.5,286047002.6,Y,0.0
1503967115.3,286047000.4,P,0.6
1503967135.1,286047000.5,N,0.6
1503967155.9,286047000.0,N,0.6
1503967175.7,286047000.8,N,0.5
1503967195.5,286047002.3,Y,0.0
1503967215.4,286047000.2,P,0.2
1503967235.2,286047002.8,P,1.1
1503967255.1,286047002.5,N,1.1
1503967256.0,286047002.5,N,1.1
1503967275.8,286047002.4,N,1.0
1503967295.6,286047002.0,N,0.9
1503967315.5,286047001.8,N,0.9
1503967335.3,286047002.8,Y,0.0
1503967355.2,286046998.2,P,1.8
1503967375.0,286047001.0,N,1.6
1503967375.9,286047001.0,N,1.4
1503967395.8,286047001.2,N,1.3
1503967415.6,286046999.4,N,1.2
1503967435.4,286046998.7,N,1.3
1503967455.3,286046998.7,N,1.3
1503967475.1,286047000.8,N,1.3
1503967495.9,286046998.6,N,1.3
1503967515.7,286047000.8,N,1.2
1503967535.5,286047001.2,N,1.2
1503967555.4,286046998.5,N,1.3
1503967575.2,286046999.4,N,1.2
1503967595.0,286046998.1,N,1.3
1503967595.9,286046998.1,N,1.3
1503967615.8,286046998.3,N,1.3
1503967635.6,286046998.3,N,1.3
1503967655.5,286047000.5,N,1.3
1503967675.3,286046998.2,N,1.3
1503967695.1,286047001.2,N,1.3
1503967715.9,286047001.2,N,1.3
1503967735.7,286047000.9,N,1.3
1503967755.6,286047001.2,N,1.3
1503967775.4,286047000.9,N,1.3
1503967795.2,286047001.0,N,1.3
1503967815.1,286047000.9,N,1.3
1503967816.0,286047000.9,N,1.3
1503967835.8,286047000.7,N,1.3
1503967855.7,286046998.2,N,1.3
1503967875.5,286046998.5,N,1.3
1503967895.3,286047001.1,N,1.2
1503967915.2,286047000.7,N,1.2
1503967935.0,286046999.9,N,1.2
1503967935.9,286046999.9,N,1.2
1503967955.7,286046999.9,N,1.2
1503967975.6,286047000.6,N,1.2
1503967995.4,286047000.4,N,1.2
1503968015.3,286047000.1,N,1.2
1503968035.1,286047000.4,N,1.1
1503968055.8,286047000.1,N,1.1
1503968075.7,286047000.4,N,1.1
1503968095.5,286047000.2,N,1.1
1503968115.4,286047000.5,N,1.1
1503968135.2,286047000.4,N,1.0
1503968155.0,286047002.2,N,1.0
1503968155.9,286047002.2,N,1.0
1503968175.8,286047001.3,N,0.9
1503968195.6,286046999.9,N,0.9
1503968215.4,286047002.0,N,0.9
1503968235.3,286046999.7,N,0.9
1503968255.1,286047001.5,N,0.9
1503968275.9,286047002.8,Y,0.0
1503968295.7,286046999.7,P,0.4
1503968315.5,286046999.7,N,0.4
1503968335.4,286047001.8,P,0.9
1503968355.2,286047000.5,N,0.8
1503968375.1,286047001.0,N,0.7
1503968376.0,286047001.0,N,0.7
1503968395.8,286047000.3,N,0.7
